Tracking 30970 objects as of 3-Jul-2025
HD Live streaming from Space Station
objects crossing your sky now

STARLINK-5862

Track STARLINK-5862 now!
10-day predictions
STARLINK-5862 is classified as:


NORAD ID: 55920
Int'l Code: 2023-037G
Perigee: 576.5 km
Apogee: 581.9 km
Inclination: 70.0 °
Period: 96.1 minutes
Semi major axis: 6950 km
RCS: Unknown
Launch date: March 17, 2023
Source: United States (US)
Launch site: AIR FORCE WESTERN TEST RANGE (AFWTR)
Your satellite tracking list
Your tracking list is empty




NASA's NSSDC Master Catalog

Two Line Element Set (TLE):
1 55920U 23037G   25183.72905949 -.00000044  00000-0  40983-5 0  9998
2 55920  69.9993 194.8890 0003931 267.0250  93.0459 14.98331400126535
Source of the keplerian elements: AFSPC